Location: Unspecified
(54.1780°N, 0.0000°E)
Time: 00:27:43
(UTC+00:00)

S-56A Canister/Altair - Pass Details

Date: 17 June 2019
Orbit: 632 x 2500 km, 38.9° (Epoch: 21 July)

Event Time Altitude Azimuth Distance (km) Brightness Sun altitude
Rises 18:21:47 0° 228° (SW) 3,983 11.6 15.8°
Reaches altitude 10° 18:26:09 10° 206° (SSW) 2,663 10.4 15.2°
Maximum altitude 18:29:21 15° 174° (S) 2,116 9.6 14.8°
Drops below altitude 10° 18:32:08 10° 141° (SE) 2,252 9.5 14.4°
Sets 18:35:19 0° 116° (ESE) 3,018 9.9 14.0°
